Terug naar catalogus

GLOBALSTAR M002

ActiefCommunicatieLEO
NORAD 25164·PAYLOAD·🇺🇸 United States

Gelanceerd Feb 14, 1998 vanaf Cape Canaveral Space Force Station

Loading…

Volgende Passages (komende 24 uur)

TLE

VersSource: Space-Track

Epoch: Sep 14, 2026, 04:51 UTC

1 25164U 98008C   26257.20224740 -.00000057  00000-0  37727-3 0  9998
2 25164  52.0002 181.8250 0000915 278.6437  81.4279 11.61517752236824

Volg GLOBALSTAR M002 in realtime met AllMySat

Download on the App Store